Station OBGN6 - 8311030 - Ogdensburg, NY Image indicating link to RSS feed of recent meteorological observations for station OBGN6


Conditions at OBGN6 as of
(5:30 am EDT)
0930 GMT on 06/06/2023:
     

Click on the graph icon in the table below to see a time series plot of the last five days of that observation.

5-day plot - Atmospheric Pressure Atmospheric Pressure (PRES):1006.8 mb
5-day plot - Air Temperature Air Temperature (ATMP): 13.5 °C
NOS Water Level Observation Network Water Level
Previous observations
TIME
(EDT)
5-day plot - Wind Direction
WDIR
 
5-day plot - Wind Speed
WSPD
m/s
5-day plot - Wind Gust
GST
m/s
5-day plot - Wave Height
WVHT
m
5-day plot - Dominant Wave Period
DPD
sec
5-day plot - Average Wave Period
APD
sec
5-day plot - Mean Wave Direction
MWD
 
5-day plot - Atmospheric Pressure
PRES
mb
5-day plot - Pressure Tendency
PTDY
mb
5-day plot - Air Temperature
ATMP
°C
5-day plot - Water Temperature
WTMP
°C
5-day plot - Dew Point
DEWP
°C
5-day plot - Salinity
SAL
psu
5-day plot - Visibility
VIS
km
5-day plot - Tide (above MLLW)
TIDE
m
2023-06-06 05:24 am-------1006.8- 13.5-----
2023-06-06 05:18 am-------1006.7- 13.5-----
2023-06-06 05:12 am-------1006.6- 13.5-----
2023-06-06 05:06 am-------1006.6- 13.5-----
2023-06-06 05:00 am-------1006.6 -1.0 13.6-----
2023-06-06 04:54 am-------1006.5- 13.5-----
2023-06-06 04:48 am-------1006.5- 13.6-----
2023-06-06 04:42 am-------1006.5- 13.7-----
2023-06-06 04:36 am-------1006.6- 13.8-----
2023-06-06 04:30 am-------1006.6- 13.9-----
2023-06-06 04:24 am-------1006.6- 14.0-----
2023-06-06 04:18 am-------1006.5- 14.1-----
2023-06-06 04:12 am-------1006.5- 14.3-----
2023-06-06 04:06 am-------1006.5- 14.3-----
2023-06-06 04:00 am-------1006.6 -1.7 14.3-----
2023-06-06 03:54 am-------1006.6- 14.2-----
2023-06-06 03:48 am-------1006.7- 14.2-----
2023-06-06 03:42 am-------1006.8- 14.3-----
2023-06-06 03:36 am-------1006.9- 14.5-----
2023-06-06 03:30 am-------1007.0- 14.6-----
2023-06-06 03:24 am-------1007.0- 14.6-----
2023-06-06 03:18 am-------1007.0- 14.7-----
2023-06-06 03:12 am-------1007.0- 14.8-----
2023-06-06 03:06 am-------1007.1- 14.8-----
2023-06-06 03:00 am-------1007.2 -1.5 14.7-----
2023-06-06 02:54 am-------1007.2- 14.7-----
2023-06-06 02:48 am-------1007.2- 14.8-----
2023-06-06 02:42 am-------1007.2- 14.8-----
2023-06-06 02:36 am-------1007.3- 14.7-----
2023-06-06 02:30 am-------1007.3- 14.8-----
2023-06-06 02:24 am-------1007.3- 14.9-----
2023-06-06 02:18 am-------1007.3- 15.0-----
2023-06-06 02:12 am-------1007.4- 15.0-----
2023-06-06 02:06 am-------1007.6- 14.9-----
2023-06-06 02:00 am-------1007.6 -1.7 14.9-----
2023-06-06 01:54 am-------1007.8- 15.0-----
2023-06-06 01:48 am-------1007.9- 15.0-----
2023-06-06 01:42 am-------1007.9- 15.0-----
2023-06-06 01:36 am-------1008.0- 15.1-----
2023-06-06 01:30 am-------1008.1- 15.1-----
2023-06-06 01:24 am-------1008.1- 15.1-----
2023-06-06 01:18 am-------1008.0- 14.9-----
2023-06-06 01:12 am-------1008.2- 14.9-----
2023-06-06 01:06 am-------1008.3- 14.9-----
2023-06-06 01:00 am-------1008.3 -1.2 15.2-----
2023-06-06 12:54 am-------1008.3- 15.1-----
2023-06-06 12:48 am-------1008.3- 15.2-----
2023-06-06 12:42 am-------1008.4- 15.3-----
2023-06-06 12:36 am-------1008.5- 15.3-----
2023-06-06 12:30 am-------1008.6- 15.7-----
2023-06-06 12:24 am-------1008.6- 16.1-----
2023-06-06 12:18 am-------1008.4- 16.2-----
2023-06-06 12:12 am-------1008.5- 16.1-----
2023-06-06 12:06 am-------1008.6- 15.9-----
2023-06-06 12:00 am-------1008.7 -1.1 15.7-----
2023-06-05 11:54 pm-------1008.9- 15.7-----
2023-06-05 11:48 pm-------1009.0- 15.7-----
2023-06-05 11:42 pm-------1009.0- 15.7-----
2023-06-05 11:36 pm-------1009.0- 15.7-----
2023-06-05 11:30 pm-------1009.0- 15.8-----
2023-06-05 11:24 pm-------1009.0- 15.9-----
2023-06-05 11:18 pm-------1009.1- 15.6-----
2023-06-05 11:12 pm-------1009.3- 15.7-----
2023-06-05 11:06 pm-------1009.3- 15.9-----
2023-06-05 11:00 pm-------1009.3- 15.9-----
2023-06-05 10:54 pm-------1009.3- 16.0-----
2023-06-05 10:48 pm-------1009.3- 15.9-----
2023-06-05 10:42 pm-------1009.3- 15.8-----
2023-06-05 10:36 pm-------1009.3- 15.6-----
2023-06-05 10:30 pm-------1009.3- 15.7-----
2023-06-05 10:24 pm-------1009.3- 15.7-----
2023-06-05 10:18 pm-------1009.3- 15.8-----
2023-06-05 10:12 pm-------1009.4- 16.0-----
2023-06-05 10:06 pm-------1009.4- 16.1-----
2023-06-05 10:00 pm-------1009.5 -0.5 16.5-----
2023-06-05 09:54 pm-------1009.6- 16.5-----
2023-06-05 09:48 pm-------1009.6- 16.4-----
2023-06-05 09:42 pm-------1009.6- 17.1-----
2023-06-05 09:36 pm-------1009.7- 17.1-----
2023-06-05 09:30 pm-------1009.7- 17.0-----
2023-06-05 09:24 pm-------1009.7- 17.3-----
2023-06-05 09:18 pm-------1009.7- 17.5-----
2023-06-05 09:12 pm-------1009.7- 17.7-----
2023-06-05 09:06 pm-------1009.7- 17.8-----
2023-06-05 09:00 pm-------1009.8 -0.4 18.3-----
2023-06-05 08:54 pm-------1009.7- 18.5-----
2023-06-05 08:48 pm-------1009.7- 18.2-----
2023-06-05 08:42 pm-------1009.6- 17.8-----
2023-06-05 08:36 pm-------1009.7- 18.0-----
2023-06-05 08:30 pm-------1009.6- 17.8-----
2023-06-05 08:24 pm-------1009.6- 17.6-----
2023-06-05 08:18 pm-------1009.7- 17.6-----
2023-06-05 08:12 pm-------1009.7- 17.4-----
2023-06-05 08:06 pm-------1009.7- 17.4-----
2023-06-05 08:00 pm--------- 18.1-----
2023-06-05 07:54 pm--------- 19.9-----
2023-06-05 07:48 pm-------1009.8- 19.9-----
2023-06-05 07:42 pm-------1009.7- 19.7-----
2023-06-05 07:36 pm-------1009.7- 19.6-----
2023-06-05 07:30 pm-------1009.8- 19.9-----
2023-06-05 07:24 pm-------1009.8- 19.8-----
2023-06-05 07:18 pm-------1009.9- 19.9-----
2023-06-05 07:12 pm-------1009.9- 19.9-----
2023-06-05 07:06 pm-------1009.9- 19.7-----
2023-06-05 07:00 pm-------1010.0 -0.7 20.1-----
2023-06-05 06:54 pm-------1010.0- 20.4-----
2023-06-05 06:48 pm-------1010.0- 20.4-----
2023-06-05 06:42 pm-------1009.9- 20.1-----
2023-06-05 06:36 pm-------1010.0- 20.2-----
2023-06-05 06:30 pm-------1010.1- 20.2-----
2023-06-05 06:24 pm-------1010.1- 20.3-----
2023-06-05 06:18 pm-------1010.1- 20.1-----
2023-06-05 06:12 pm-------1010.1- 19.7-----
2023-06-05 06:06 pm-------1010.2- 20.0-----
2023-06-05 06:00 pm-------1010.2 -1.2 20.2-----
2023-06-05 05:54 pm-------1010.3- 20.3-----
2023-06-05 05:48 pm-------1010.3- 20.1-----
2023-06-05 05:42 pm-------1010.3- 20.4-----
2023-06-05 05:36 pm-------1010.3- 20.1-----
2023-06-05 05:30 pm-------1010.3- 20.4-----
2023-06-05 05:24 pm-------1010.3- 20.7-----
2023-06-05 05:18 pm-------1010.4- 20.9-----
2023-06-05 05:12 pm-------1010.5- 20.9-----
2023-06-05 05:06 pm-------1010.5- 20.7-----
2023-06-05 05:00 pm-------1010.6 -1.3 20.7-----
2023-06-05 04:54 pm-------1010.6- 20.5-----
2023-06-05 04:48 pm-------1010.7- 20.5-----
2023-06-05 04:42 pm-------1010.7- 19.8-----
2023-06-05 04:36 pm-------1010.8- 20.1-----
2023-06-05 04:30 pm-------1010.8- 20.1-----
2023-06-05 04:24 pm-------1010.8- 20.2-----
2023-06-05 04:18 pm-------1010.9- 20.2-----
2023-06-05 04:12 pm-------1010.8- 20.0-----
2023-06-05 04:06 pm-------1011.1- 20.7-----
2023-06-05 04:00 pm-------1010.7 -1.8 21.0-----
2023-06-05 03:54 pm-------1010.9- 20.4-----
2023-06-05 03:48 pm-------1011.2- 20.2-----
2023-06-05 03:42 pm-------1011.2- 20.8-----
2023-06-05 03:36 pm-------1011.1- 21.2-----
2023-06-05 03:30 pm-------1011.1- 21.3-----
2023-06-05 03:24 pm-------1011.1- 21.1-----
2023-06-05 03:18 pm-------1011.1- 21.6-----
2023-06-05 03:12 pm-------1011.2- 21.3-----
2023-06-05 03:06 pm-------1011.3- 21.1-----
2023-06-05 03:00 pm-------1011.4 -1.7 21.4-----
2023-06-05 02:54 pm-------1011.4- 21.1-----
2023-06-05 02:48 pm-------1011.4- 21.3-----
2023-06-05 02:42 pm-------1011.5- 21.2-----
2023-06-05 02:36 pm-------1011.6- 21.2-----
2023-06-05 02:30 pm-------1011.7- 21.1-----
2023-06-05 02:24 pm-------1011.7- 21.2-----
2023-06-05 02:18 pm--------- 21.0-----
2023-06-05 02:12 pm--------- 20.2-----
2023-06-05 02:06 pm--------- 20.0-----
2023-06-05 02:00 pm-------1011.9 -1.7 19.8-----
2023-06-05 01:54 pm-------1012.0- 19.3-----
2023-06-05 01:48 pm-------1012.1- 18.8-----
2023-06-05 01:42 pm-------1012.1- 18.8-----
2023-06-05 01:36 pm-------1012.2- 19.0-----
2023-06-05 01:30 pm-------1012.3- 18.8-----
2023-06-05 01:24 pm-------1012.3- 18.7-----
2023-06-05 01:18 pm-------1012.4- 18.9-----
2023-06-05 01:12 pm-------1012.4- 19.5-----
2023-06-05 01:06 pm-------1012.5- 19.3-----
2023-06-05 01:00 pm-------1012.5 -1.6 19.4-----
2023-06-05 12:54 pm-------1012.6- 18.7-----
2023-06-05 12:48 pm-------1012.6- 18.5-----
2023-06-05 12:42 pm-------1012.7- 18.3-----
2023-06-05 12:36 pm-------1012.8- 18.0-----
2023-06-05 12:30 pm-------1012.8- 18.1-----
2023-06-05 12:24 pm-------1012.8- 17.7-----
2023-06-05 12:18 pm-------1012.9- 18.3-----
2023-06-05 12:12 pm-------1012.9- 18.1-----
2023-06-05 12:06 pm-------1013.0- 18.1-----
2023-06-05 12:00 pm-------1013.1 -2.0 17.7-----
2023-06-05 11:54 am-------1013.1- 17.6-----
2023-06-05 11:48 am-------1013.2- 17.6-----
2023-06-05 11:42 am-------1013.2- 17.4-----
2023-06-05 11:36 am-------1013.2- 17.4-----
2023-06-05 11:30 am-------1013.3- 17.5-----
2023-06-05 11:24 am-------1013.3- 17.1-----
2023-06-05 11:18 am-------1013.4- 16.8-----
2023-06-05 11:12 am-------1013.5- 16.5-----
2023-06-05 11:06 am-------1013.6- 16.0-----
2023-06-05 11:00 am-------1013.6 -1.8 15.9-----
2023-06-05 10:54 am-------1013.7- 15.7-----
2023-06-05 10:48 am-------1013.8- 15.5-----
2023-06-05 10:42 am-------1013.9- 15.2-----
2023-06-05 10:36 am-------1014.0- 14.8-----
2023-06-05 10:30 am-------1014.0- 14.7-----
2023-06-05 10:24 am-------1014.1- 14.4-----
2023-06-05 10:18 am-------1014.2- 14.5-----
2023-06-05 10:12 am-------1014.2- 14.8-----
2023-06-05 10:06 am-------1014.2- 14.8-----
2023-06-05 10:00 am-------1014.1 -1.5 15.0-----
2023-06-05 09:54 am-------1014.3- 14.6-----
2023-06-05 09:48 am-------1014.5- 14.2-----
2023-06-05 09:42 am-------1014.6- 14.2-----
2023-06-05 09:36 am-------1014.7- 14.2-----
2023-06-05 09:30 am-------1014.7- 14.1-----
2023-06-05 09:24 am-------1014.8- 13.9-----
2023-06-05 09:18 am-------1014.8- 13.8-----
2023-06-05 09:12 am-------1015.0- 13.4-----
2023-06-05 09:06 am-------1015.0- 13.4-----
2023-06-05 09:00 am-------1015.1 -0.5 13.2-----
2023-06-05 08:54 am-------1015.1- 13.1-----
2023-06-05 08:48 am-------1015.1- 13.1-----
2023-06-05 08:42 am-------1015.1- 12.9-----
2023-06-05 08:36 am-------1015.2- 13.0-----
2023-06-05 08:30 am-------1015.3- 13.0-----
2023-06-05 08:24 am-------1015.3- 13.3-----
2023-06-05 08:18 am-------1015.3- 13.2-----
2023-06-05 08:12 am-------1015.3- 13.2-----
2023-06-05 08:06 am-------1015.3- 12.9-----
2023-06-05 08:00 am-------1015.4 -0.3 12.7-----
2023-06-05 07:54 am-------1015.4- 12.4-----
2023-06-05 07:48 am-------1015.4- 12.2-----
2023-06-05 07:42 am-------1015.5- 11.8-----
2023-06-05 07:36 am-------1015.5- 11.8-----
2023-06-05 07:30 am-------1015.6- 11.6-----
2023-06-05 07:24 am-------1015.6- 11.6-----
2023-06-05 07:18 am-------1015.6- 11.5-----
2023-06-05 07:12 am-------1015.6- 11.4-----
2023-06-05 07:06 am-------1015.6- 11.3-----
2023-06-05 07:00 am-------1015.6 +0.0 11.3-----
2023-06-05 06:54 am-------1015.7- 11.4-----
2023-06-05 06:48 am-------1015.7- 11.3-----
2023-06-05 06:42 am-------1015.7- 11.6-----
2023-06-05 06:36 am-------1015.6- 11.3-----
2023-06-05 06:30 am-------1015.6- 11.4-----
2023-06-05 06:24 am-------1015.6- 11.4-----
2023-06-05 06:18 am-------1015.6- 11.3-----
2023-06-05 06:12 am-------1015.6- 11.3-----
2023-06-05 06:06 am-------1015.7- 11.3-----
2023-06-05 06:00 am-------1015.6 +0.0 11.2-----
2023-06-05 05:54 am-------1015.7- 11.1-----